BEIDOU-2 IGSO-5

Last updated on Tue Nov 19 2024 00:02:41 GMT+0000 (Coordinated Universal Time)

1 37948U 11073A 24323.60382925 -.00000196 00000+0 00000+0 0 9997 2 37948 48.7324 278.6285 0101309 221.9974 228.9605 1.00257491 47368
UTC large
Height (km)
Speed (km/s)
/
Latitude / Longitude
Inclination (degrees)
Orbital Period (minutes)
Azimuth
Elevation
Range (km)
Doppler Factor

Next 0 passes for location: London (51.5072 / 0.1276)

Sorry there are no passes over London.